STARLINK-32850, 62950

Orbit data source: Space-Track

STARLINK-32850, 62950 is a payload satellite owned by SpaceX/Seattle (US) in LEO that was launched on Tue, 11 Feb 2025 UTC via an FALCON 9 launch vehicle from the Air Force Western Test Range (AFWTR). Payload-class satellites include a variety of spacecraft equipped with specific instruments for various scientific and technological missions. These include communications satellites like Starlink; space stations such as the ISS; scientific satellites like the Hubble; Earth observation satellites from companies like Planet Labs, Umbra, and HawkEye 360; GPS; miniature CubeSats for education and research; and military/defense satellites.

Loading next visibility...
Identifier
62950, 2025-029C
Orbit
LEO
Country
Flag of USUS
Related business
Manufacturer
SpaceX/Seattle
Mission
Operational Commercial Communications
Bus & Motor
STARLINK V2M, Unknown motor
Mass
730 kg wet, ~700 kg dry
Launch date (UTC)
2025-02-11 (1 year ago)
Launch vehicle
FALCON 9
Launch site
Air Force Western Test Range (AFWTR)
Object type
Payload
Rocket body
Debris
Shape & HBR
Box + 2 Pan, 17.7 m
Radar Cross Section
33.884 m², Large (>1 m²)

Expand to show TLE details & history
Last TLE update: 1 day ago

TLE from 1 day ago
0 STARLINK-32850
1 62950U 25029C   26170.83497683  .00013000  00000-0  42971-3 0  9994
2 62950  53.1588 117.5013 0001523  84.1340 275.9835 15.31717989 76972
Epoch: 2026-06-19T20:02Z
TLE epoch observation values (Epoch: 2026-06-19T20:02:21.998Z)
Latitude
-0°
Longitude
-91.14862°
Altitude
471.478 km
Speed
7.632 km/s
True Right ascension
07h 50m 00s
True Declination
0° 00' 00"
Sunlit
Object was in daylight at epoch
Visualization orbit readout
Latitude
Unknown
Longitude
Unknown
Altitude
Unknown
Speed
Unknown
Apparent Right ascension
Unknown
Apparent Declination
Unknown
Sunlit
N/A
Visualization observer readout
Local Sidereal Time
07:16:40
Azimuth
Unknown
Elevation
Unknown
Doppler factor
Unknown
Orbital elements
Apogee altitude
471.986 km
Perigee altitude
469.9 km
Semi-major axis
6,849.08 km
Eccentricity
0.00015
Inclination
53.1588°
RAAN
117.5013°
Arg. of periapsis
84.134°
True anomaly
275.96614°
Mean anomaly
275.9835°
Eccentric anomaly
275.97482°
Mean motion
3.82908 °/min
Orbital period
94.02 mins
BSTAR
0.00042971
Loading maneuver chart data...
Computing Atmospheric mass density...
Loading historical data...
Loading historical data...
Loading historical data...
Loading historical data...
Loading historical data...
Loading historical data...
Loading historical data...

Documentation

Showing up to 5 results
|